Location: Chagrin Falls Park
(41.4139°N, 81.3865°W)
Time: 03:04:49
(UTC+00:00)

STARLINK-2672 - Pass Details

Date: 31 July 2021
Orbit: 546 x 548 km, 53.1° (Epoch: 21 September)

Event Time Altitude Azimuth Distance (km) Brightness Sun altitude
Rises 01:53:04 0° 306° (NW) 2,722 9.4 -11.8°
Reaches altitude 10° 01:55:19 10° 304° (NW) 1,824 7.8 -12.1°
Maximum altitude 01:59:26 70° 222° (SW) 585 3.7 -12.7°
Enters shadow 02:02:08 21° 141° (SE) 1,268 4.8 -13.1°
